[[{"header":{"parameterUnit":"m.s-1","parameterCategory":1,"la1":30.2991,"la2":30.254,"lo1":-89.0895,"lo2":-89.0444,"dy":0.0017,"dx":0.0017,"nx":28,"ny":28,"refTime":"2023-09-07T03:00:00:Z","depth":0,"parameterNumber":2,"parameterNumberName":"U-component_of_WINDS"},"data":[0,0,0,0,0,0,0,0,0,0,0,0,0,0,0,0,0,0,0,0,0,0,0,0,0,0,0,0,0,0,0,0,0,0,0,0,0,0,0,0,0,0,0,0,0,0,0,0,0,0,0,0,0,0,0,0,0,0,2.4704,2.4703,0,2.4628,2.4627,2.4626,2.4465,2.4462,2.4459,2.4456,2.4383,2.4384,2.4385,0,0,0,0,0,0,0,0,0,0,0,0,0,2.471,2.4711,2.4704,2.4703,2.4702,2.4628,2.4627,2.4626,2.4466,2.4462,2.4458,2.4454,2.4382,2.4383,2.4385,0,0,0,0,0,0,0,0,0,0,0,0,0,2.4679,2.4711,2.4704,2.4613,2.4604,2.4628,2.4627,2.4626,2.4467,2.4462,2.4457,2.4452,2.4382,2.4383,2.4385,2.4493,0,0,2.439,2.4391,0,0,0,0,0,0,0,0,2.4681,2.4679,2.4627,2.4619,2.4609,2.4551,2.4602,2.4581,2.4468,2.4519,2.4456,2.445,2.4443,2.4439,2.4436,2.449,2.4486,2.439,2.4391,2.4392,2.4392,0,0,0,0,0,0,0,2.4683,2.4681,2.4674,2.4627,2.4616,2.4576,2.4566,2.4598,2.451,2.4514,2.4502,2.4495,2.4437,2.4435,2.4433,2.4485,2.439,2.4392,2.4393,2.4393,2.462,2.4625,0,0,0,0,0,0,2.4698,2.4684,2.4676,2.4671,2.4633,2.458,2.4569,2.4575,2.4509,2.4494,2.45,2.4488,2.4434,2.4431,2.443,2.455,2.4392,2.4393,2.4394,2.4615,2.4621,2.4627,0,0,0,0,0,0,2.4699,2.4699,2.4679,2.4674,2.4669,2.4585,2.4593,2.4576,2.4573,2.4497,2.4481,2.4513,2.443,2.4427,2.4477,2.4546,2.4394,2.4396,2.4609,2.4617,2.4624,2.4794,0,0,0,0,0,0,2.47,2.47,2.4741,2.4676,2.467,2.4729,2.4597,2.4578,2.4576,2.456,2.4506,2.4493,2.4426,2.4476,2.4479,2.4545,2.4397,2.4603,2.4613,2.4622,2.4782,2.4806,2.4827,0,0,0,0,0,2.4701,2.4794,2.4744,2.4744,2.4718,2.4733,2.4729,2.465,2.4582,2.4622,2.4572,2.4494,2.4537,2.4482,2.4485,2.4552,2.4598,2.461,2.4621,2.4772,2.4802,2.4827,0,0,0,0,0,0,2.4871,2.4784,2.4728,2.4802,2.4776,2.4706,2.4754,2.4684,2.4678,2.4664,2.4567,2.4556,2.4619,2.459,2.453,2.4651,2.4555,2.4567,2.4669,2.4696,2.4719,2.4726,2.4398,0,0,0,0,0,2.4917,2.4935,2.4858,2.4931,2.492,2.484,2.4843,2.4784,2.4753,2.4742,2.4696,2.4671,2.4677,2.4685,2.4687,2.4775,2.4761,2.4823,2.4845,2.4864,2.4877,2.492,2.4946,2.4664,2.4664,2.4664,0,0,2.5013,2.4967,2.4985,2.4964,2.4937,2.4958,2.4832,2.4861,2.4876,2.4747,2.4791,2.4756,2.472,2.4789,2.4818,2.4767,2.4951,2.4879,2.4895,2.4897,2.4934,2.4961,2.4985,2.4672,2.467,2.4669,0,0,2.5199,2.5166,2.5222,2.5196,2.5155,2.51,2.5113,2.5052,2.5024,2.5065,2.4968,2.4984,2.4999,2.4977,2.4968,2.514,2.5067,2.5143,2.5263,2.5305,2.5328,2.5347,2.5408,2.5431,2.5155,2.5156,2.5156,0,2.5324,2.5352,2.5261,2.5294,2.5287,2.5168,2.5224,2.5203,2.5167,2.5165,2.5107,2.5121,2.5089,2.515,2.5191,2.5188,2.52,2.5151,2.5331,2.535,2.5367,2.5424,2.5447,2.5165,2.5164,2.5163,2.5162,0,2.5507,2.5528,2.5578,2.5542,2.554,2.5586,2.5501,2.551,2.5449,2.5399,2.5442,2.5398,2.5389,2.5398,2.534,2.545,2.542,2.5349,2.525,2.5405,2.5457,2.5478,2.5179,2.5175,2.5173,2.517,0,0,2.5804,2.5713,2.5733,2.5714,2.5657,2.5672,2.571,2.5698,2.5707,2.5684,2.5714,2.5726,2.5658,2.5648,2.5586,2.5623,2.576,2.5546,2.5544,2.5588,2.5878,2.5934,2.5961,2.571,2.5714,2.5717,2.5881,0,2.5979,2.6039,2.5955,2.6034,2.6051,2.5934,2.5967,2.5936,2.5889,2.5897,2.5845,2.5856,2.5765,2.5758,2.5789,2.5737,2.5818,2.5724,2.5738,2.574,2.5753,2.5988,2.6048,2.6205,2.5901,2.5904,2.5907,0,2.6192,2.6176,2.6256,2.619,2.6194,2.6225,2.6206,2.6214,2.6175,2.6138,2.6124,2.6048,2.608,2.5982,2.6024,2.5962,2.5962,2.5937,2.5941,2.5942,2.5835,2.5997,2.6254,2.6278,2.5938,2.5935,2.5933,0,2.6401,2.6399,2.6446,2.6433,2.6358,2.6382,2.6352,2.6308,2.6305,2.6287,2.6284,2.6272,2.6266,2.6257,2.6179,2.6115,2.6231,2.6127,2.6203,2.6205,2.6236,2.6235,2.6498,2.6232,2.6232,2.6231,2.6231,0,2.6607,2.6661,2.6539,2.6568,2.6624,2.6526,2.6584,2.6542,2.6502,2.6521,2.6419,2.6439,2.6333,2.6341,2.628,2.6325,2.6322,2.6294,2.6278,2.6305,2.6309,2.6306,2.6294,2.6238,2.6236,2.6235,2.6234,0,2.6853,2.6773,2.6816,2.6739,2.6721,2.6765,2.6699,2.6723,2.6667,2.6692,2.6692,2.6605,2.6609,2.6529,2.6518,2.6476,2.6548,2.6511,2.6562,2.6551,2.6632,2.6626,2.6904,2.6936,2.6648,2.6651,2.6653,0,2.6991,2.7028,2.6954,2.6958,2.6932,2.694,2.6935,2.6838,2.6838,2.6793,2.6822,2.6816,2.6807,2.6819,2.6755,2.6745,2.6708,2.6806,2.6707,2.6732,2.6711,2.6711,2.6714,2.6829,2.6832,2.6835,2.6838,0,2.7244,2.7201,2.7197,2.7179,2.7175,2.7156,2.7131,2.714,2.7034,2.7038,2.7039,2.7032,2.7017,2.7014,2.699,2.6959,2.6882,2.6868,2.6885,2.6915,2.6943,2.693,2.6621,2.6864,2.6861,2.6859,2.6858,2.6857,2.7441,2.7468,2.7419,2.7417,2.7386,2.7364,2.7381,2.7325,2.7324,2.7304,2.7246,2.7257,2.7212,2.7173,2.7148,2.7155,2.7106,2.7131,2.7138,2.7146,2.7162,2.6939,2.715,2.7149,2.7148,2.7147,2.7147,0,2.769,2.7651,2.7649,2.7615,2.7613,2.7535,2.7502,2.7506,2.7516,2.748,2.7472,2.7472,2.7466,2.74,2.7386,2.7404,2.7368,2.7404,2.7403,2.7397,2.7205,2.7193,2.7433,2.7433,2.7433,2.7433,2.7433,2.7433,2.782,2.7861,2.7812,2.7836,2.7796,2.7804,2.7792,2.777,2.774,2.7744,2.7738,2.7693,2.7645,2.7625,2.7616,2.7596,2.7597,2.7646,2.7615,2.7438,2.7411,2.7384,2.7372,2.7646,2.7647,2.7806,2.7807,2.7808]},{"header":{"parameterUnit":"m.s-1","parameterCategory":1,"la1":30.2991,"la2":30.254,"lo1":-89.0895,"lo2":-89.0444,"dy":0.0017,"dx":0.0017,"nx":28,"ny":28,"refTime":"2023-09-07T03:00:00:Z","depth":0,"parameterNumber":3,"parameterNumberName":"V-component_of_WINDS"},"data":[0,0,0,0,0,0,0,0,0,0,0,0,0,0,0,0,0,0,0,0,0,0,0,0,0,0,0,0,0,0,0,0,0,0,0,0,0,0,0,0,0,0,0,0,0,0,0,0,0,0,0,0,0,0,0,0,0,0,3.4834,3.4836,0,3.5051,3.5054,3.5056,3.5041,3.5038,3.5035,3.5032,3.5245,3.5254,3.5262,0,0,0,0,0,0,0,0,0,0,0,0,0,3.4397,3.4406,3.4834,3.4837,3.4839,3.5051,3.5054,3.5057,3.5042,3.5038,3.5034,3.5031,3.5243,3.5253,3.5263,0,0,0,0,0,0,0,0,0,0,0,0,0,3.4598,3.4408,3.4833,3.4858,3.4862,3.505,3.5054,3.5058,3.5043,3.5038,3.5033,3.5029,3.5239,3.5252,3.5265,3.544,0,0,3.5304,3.531,0,0,0,0,0,0,0,0,3.4586,3.4614,3.4851,3.4856,3.4861,3.5015,3.4978,3.5186,3.5044,3.4974,3.5032,3.5026,3.5172,3.519,3.5241,3.545,3.5459,3.5305,3.5313,3.5319,3.5323,0,0,0,0,0,0,0,3.4573,3.4604,3.4919,3.4855,3.4861,3.4855,3.4878,3.5017,3.5097,3.498,3.4979,3.5005,3.5174,3.5229,3.5246,3.5462,3.5305,3.5317,3.5325,3.533,3.5824,3.5829,0,0,0,0,0,0,3.4555,3.4593,3.4913,3.4926,3.471,3.4867,3.4893,3.497,3.5095,3.511,3.5009,3.5004,3.5209,3.5231,3.5253,3.5466,3.5319,3.5331,3.5338,3.5819,3.5825,3.5831,0,0,0,0,0,0,3.4545,3.4583,3.4904,3.476,3.48,3.4879,3.4966,3.4977,3.5032,3.5118,3.5131,3.5052,3.5206,3.5235,3.5394,3.5473,3.5337,3.5349,3.5813,3.5821,3.5828,3.5893,0,0,0,0,0,0,3.4533,3.458,3.465,3.4761,3.4808,3.5044,3.4971,3.4985,3.5055,3.505,3.5161,3.5174,3.5204,3.5375,3.5407,3.5488,3.5359,3.5806,3.5816,3.5826,3.5884,3.5902,3.5917,0,0,0,0,0,3.4517,3.4657,3.4653,3.4692,3.4897,3.5048,3.5075,3.5109,3.5062,3.5131,3.5186,3.5171,3.546,3.5391,3.5427,3.5514,3.5801,3.5813,3.5825,3.5876,3.5898,3.5917,0,0,0,0,0,0,3.4549,3.4672,3.4669,3.485,3.4939,3.5046,3.5134,3.5131,3.5234,3.5224,3.526,3.5285,3.5444,3.5495,3.5417,3.5689,3.5624,3.5643,3.565,3.5672,3.5688,3.5671,3.5369,0,0,0,0,0,3.4578,3.4694,3.4794,3.4944,3.4989,3.5054,3.5121,3.514,3.5233,3.527,3.5336,3.5424,3.5534,3.5606,3.5713,3.5892,3.5914,3.5969,3.5985,3.5999,3.6015,3.6111,3.6136,3.5871,3.5871,3.5871,0,0,3.4637,3.4719,3.4789,3.4952,3.5024,3.514,3.5086,3.5211,3.5297,3.5288,3.5442,3.5494,3.5594,3.5764,3.5842,3.5811,3.6093,3.6014,3.6024,3.6033,3.6126,3.6151,3.6173,3.5879,3.5878,3.5876,0,0,3.4805,3.4879,3.5012,3.5085,3.5195,3.5237,3.5269,3.5377,3.5412,3.5569,3.5564,3.5665,3.5855,3.5926,3.5987,3.6182,3.6171,3.6215,3.6302,3.6395,3.6416,3.6435,3.6502,3.6526,3.6231,3.6231,3.6232,0,3.4863,3.5041,3.5079,3.5206,3.5277,3.5278,3.541,3.5479,3.5616,3.5664,3.5628,3.5867,3.5934,3.6119,3.6167,3.6217,3.6252,3.6202,3.6411,3.643,3.6448,3.6512,3.6537,3.6236,3.6236,3.6235,3.6235,0,3.5107,3.523,3.5324,3.546,3.5541,3.567,3.5725,3.5803,3.5815,3.586,3.6018,3.6099,3.6222,3.6267,3.6279,3.6454,3.6431,3.6404,3.6338,3.6477,3.6538,3.6563,3.6243,3.6241,3.624,3.6238,0,0,3.5299,3.5456,3.5489,3.555,3.5672,3.5766,3.5895,3.6018,3.6082,3.6177,3.6283,3.6444,3.6419,3.6489,3.6508,3.6591,3.6737,3.6552,3.6555,3.6582,3.6932,3.6951,3.6979,3.6732,3.6737,3.6741,3.6923,0,3.5476,3.5707,3.5745,3.5946,3.6058,3.6061,3.6172,3.6257,3.6303,3.6403,3.6452,3.6565,3.6525,3.6567,3.6649,3.6702,3.6808,3.669,3.6827,3.6832,3.68,3.7011,3.7032,3.7199,3.6947,3.6951,3.6954,0,3.5714,3.5819,3.6031,3.6138,3.6186,3.6286,3.6401,3.6498,3.6593,3.6621,3.6699,3.6709,3.6839,3.677,3.6947,3.6866,3.6925,3.696,3.6967,3.6979,3.69,3.7026,3.7254,3.7278,3.6992,3.6989,3.6987,0,3.583,3.6023,3.6175,3.6228,3.6356,3.6426,3.6482,3.6573,3.6645,3.6744,3.679,3.6903,3.6963,3.7049,3.7088,3.7034,3.7262,3.7196,3.7285,3.7284,3.7331,3.7327,3.7569,3.7373,3.7372,3.7372,3.7371,0,3.6023,3.6152,3.6229,3.6322,3.6466,3.6508,3.6649,3.6703,3.6784,3.6885,3.6894,3.6988,3.7036,3.7136,3.7167,3.7308,3.7336,3.7359,3.7365,3.7357,3.7354,3.7394,3.7382,3.7379,3.7377,3.7376,3.7375,0,3.6175,3.6232,3.6398,3.6507,3.6537,3.6638,3.673,3.6819,3.6865,3.6993,3.7025,3.7096,3.7215,3.7263,3.7408,3.7429,3.759,3.7588,3.7559,3.756,3.7645,3.7635,3.7919,3.7957,3.7738,3.774,3.7742,0,3.6293,3.6393,3.6514,3.6584,3.6643,3.6755,3.6829,3.6874,3.6949,3.7066,3.714,3.726,3.7357,3.7546,3.7609,3.7719,3.7718,3.781,3.7734,3.7723,3.7716,3.7709,3.7718,3.7823,3.7825,3.7827,3.7828,0,3.6496,3.652,3.6627,3.6745,3.6833,3.6926,3.7018,3.7074,3.7132,3.7216,3.7339,3.7416,3.7565,3.7682,3.7796,3.785,3.7848,3.7852,3.7878,3.7869,3.7847,3.7858,3.7594,3.7845,3.7843,3.7842,3.7841,3.784,3.6633,3.6722,3.6821,3.6939,3.7013,3.7099,3.7188,3.7246,3.7351,3.7478,3.7497,3.7629,3.772,3.7874,3.7932,3.8033,3.8009,3.8047,3.8056,3.8064,3.8069,3.7834,3.8054,3.8054,3.8053,3.8053,3.8053,0,3.6834,3.6898,3.7008,3.7137,3.7229,3.7224,3.7325,3.7402,3.7518,3.7606,3.7703,3.7843,3.7958,3.803,3.8144,3.821,3.8212,3.8239,3.8232,3.8244,3.8085,3.805,3.8235,3.8235,3.8235,3.8235,3.8235,3.8235,3.6949,3.7099,3.7134,3.7319,3.7382,3.7513,3.7571,3.7649,3.7719,3.7877,3.7973,3.802,3.8101,3.8221,3.8324,3.8342,3.8382,3.841,3.8426,3.8275,3.8256,3.8238,3.8205,3.8419,3.842,3.8577,3.8578,3.8579]}]]